Location: Moscow
(55.7500°N, 37.5830°E)
Time: 13:08:20
(UTC+03:00)

S-56A Canister/Altair - Pass Details

Date: 07 December 2021
Orbit: 633 x 2499 km, 38.9° (Epoch: 17 January)

Event Time Altitude Azimuth Distance (km) Brightness Sun altitude
Rises 00:36:55 0° 233° (SW) 5,215 - -56.7°
Reaches altitude 10° 00:41:41 10° 220° (SW) 3,862 - -56.6°
Maximum altitude 00:48:20 21° 177° (S) 2,539 - -56.5°
Drops below altitude 10° 00:53:27 10° 130° (SE) 2,873 - -56.3°
Sets 00:56:22 0° 114° (ESE) 3,582 - -56.2°
